Погода в Воробьёвым

Россия / Вологодская область     59°37′37″N   40°53′20″E
темп.,
°C
ветер,
м/с
пор.,
м/с
влажн.,
%
обл.,
%
осадки,
мм/ч
давл.,
гПа
погр.,
м
13 августа, сб
сб1300:00+14сз277612 0.0 1021130
03:00+12сз247539 0.0 102263
06:00+14сз127816 0.0 102381
09:00+19зюз236160 0.0 1022497
12:00+20з245891 0.0 1022802
15:00+18ссв237597 0.1 102177
18:00+20сз246867 0.0 1021413
21:00+16ссз118612 0.0 102111
14 августа, вс
вс1400:00+15ссз119090 0.0 102218
03:00+14ссв119539 0.0 102221
06:00+15всв129219 0.0 102266
09:00+20всв11685 0.0 1022572
12:00+24з025546 0.1 10221473
15:00+24з134977 0.3 10211647
18:00+21ююз126890 0.1 102155
21:00+16юз01830 0.3 102220
15 августа, пн
пн1500:00+14юв22950 0.0 102226
03:00+13ююв12960 0.0 102316
06:00+14вюв11920 0.0 102428
09:00+20ююв12675 0.0 1024425
12:00+25ююв11464 0.0 10241362
15:00+26ююв11415 0.0 10231777
18:00+23вюв22595 0.0 102361
21:00+17юв22710 0.0 102440
16 августа, вт
вт1600:00+16юв23735 0.0 102548
03:00+15ююв237721 0.0 102641
06:00+15ююв247613 0.0 102580
09:00+22ююв245725 0.0 1026362
12:00+26ю234638 0.0 10251185
15:00+27зюз224179 0.0 10242135
18:00+24юз005755 0.0 102411
21:00+19юв226737 0.0 102413
17 августа, ср
ср1700:00+20ююв2363100 0.0 102456
03:00+19ю236885 0.0 102458
06:00+18ю237191 0.0 102468
09:00+20ююз2471100 0.0 1024164
12:00+24ю135787 0.0 1024503
15:00+27ю224221 0.0 10231882
18:00+24ююв116076 0.0 102216
21:00+20ю226636 0.0 102344